EW0364 Weather Reports


time (UTC)temp
C
wind
direction
speed
KPH
gust
KPH
rain 1hr
cm
rain 24hr
cm
rain mn
cm
humidity
%
barometer
mb
20260507051105 12 264 4.8 12.9 0.00 0.43 0.00 96 1006.6
20260507050205 12 250 3.2 9.7 0.00 0.43 0.00 96 1006.4
20260507045306 12 233 3.2 12.9 0.00 0.43 0.00 96 1006.5
20260507044405 12 218 1.6 8.0 0.00 0.43 0.00 96 1006.5
20260507042605 12 247 3.2 8.0 0.00 0.43 0.00 96 1006.4
20260507041705 12 220 3.2 11.3 0.00 0.43 0.00 96 1006.6
20260507040805 12 206 4.8 12.9 0.00 0.43 0.00 96 1006.5
20260507035905 12 221 4.8 20.9 0.00 0.43 0.43 96 1006.7
20260507035005 12 207 4.8 14.5 0.00 0.43 0.43 96 1006.7
20260507034105 12 223 4.8 17.7 0.00 0.43 0.43 96 1006.7
20260507032306 12 247 6.4 16.1 0.00 0.43 0.43 96 1007.1
20260507031405 12 233 8.0 20.9 0.00 0.43 0.43 95 1006.9
20260507030505 12 236 9.7 22.5 0.00 0.43 0.43 95 1006.9
20260507025605 12 230 6.4 17.7 0.00 0.43 0.43 95 1006.8
20260507024704 12 205 9.7 29.0 0.00 0.43 0.43 95 1006.5
20260507023805 12 216 8.0 17.7 0.00 0.43 0.43 95 1006.8
20260507022905 12 216 11.3 27.4 0.00 0.43 0.43 95 1006.9
20260507022005 13 212 9.7 24.1 0.00 0.43 0.43 95 1007.0
20260507020204 13 220 9.7 25.7 0.00 0.43 0.43 95 1007.3
20260507015306 13 224 11.3 27.4 0.00 0.43 0.43 95 1007.4
20260507014405 13 222 11.3 24.1 0.00 0.43 0.43 95 1007.5
20260507013505 13 234 8.0 24.1 0.00 0.43 0.43 95 1007.6
20260507012604 13 238 11.3 24.1 0.00 0.43 0.43 95 1007.7
20260507010804 13 239 9.7 30.6 0.00 0.43 0.43 95 1007.8
20260507005004 13 228 11.3 29.0 0.03 0.43 0.43 95 1007.7
20260507003204 13 234 11.3 27.4 0.05 0.43 0.43 95 1007.6
20260507002306 13 228 9.7 27.4 0.10 0.43 0.43 95 1007.6
20260507001404 13 221 12.9 25.7 0.13 0.43 0.43 95 1007.6
20260507000505 13 226 16.1 33.8 0.13 0.41 0.41 95 1007.7
20260506235604 13 223 14.5 37.0 0.15 0.41 0.41 95 1007.6
20260506234704 13 216 14.5 33.8 0.23 0.41 0.41 95 1007.6
20260506233804 13 215 11.3 29.0 0.23 0.38 0.38 94 1007.4
20260506232004 13 196 11.3 24.1 0.20 0.33 0.33 94 1007.4
20260506231104 13 196 12.9 30.6 0.18 0.28 0.28 93 1007.3
20260506230204 13 207 12.9 30.6 0.20 0.28 0.28 93 1007.5
20260506225306 13 203 16.1 40.2 0.15 0.20 0.23 92 1007.6
20260506224404 13 211 14.5 30.6 0.15 0.18 0.18 92 1007.7
20260506222604 13 215 11.3 27.4 0.10 0.13 0.13 91 1007.9
20260506221704 13 210 16.1 32.2 0.10 0.13 0.13 91 1008.1
20260506220804 13 206 11.3 30.6 0.05 0.08 0.08 91 1008.2
20260506215904 13 199 9.7 20.9 0.05 0.08 0.08 90 1008.2
20260506215005 14 208 11.3 29.0 0.03 0.05 0.05 89 1008.1
20260506214104 14 205 11.3 25.7 0.00 0.03 0.03 89 1008.2
20260506213204 14 199 12.9 29.0 0.03 0.03 0.03 89 1008.1
20260506212306 14 205 12.9 32.2 0.03 0.03 0.03 88 1008.4
20260506211404 14 204 16.1 30.6 0.03 0.03 0.03 88 1008.5
20260506210504 14 203 16.1 38.6 0.03 0.03 0.03 87 1008.6
20260506205604 15 212 16.1 38.6 0.03 0.03 0.03 87 1008.6
20260506203804 15 214 17.7 37.0 0.03 0.03 0.03 87 1008.6
20260506202904 15 201 14.5 30.6 0.00 0.00 0.00 87 1008.7
20260506202004 15 208 14.5 30.6 0.00 0.00 0.00 87 1008.8
20260506200204 15 202 16.1 33.8 0.00 0.00 0.00 84 1008.9
20260506195306 15 210 12.9 32.2 0.00 0.00 0.00 84 1009.1
20260506193504 15 198 16.1 48.3 0.00 0.00 0.00 83 1009.3
20260506192603 15 204 14.5 48.3 0.00 0.00 0.00 83 1009.4
20260506191704 15 207 14.5 29.0 0.00 0.00 0.00 83 1009.4
20260506190803 15 205 16.1 40.2 0.00 0.00 0.00 82 1009.5
20260506185003 15 207 14.5 37.0 0.00 0.00 0.00 81 1009.5
20260506184104 16 205 14.5 35.4 0.00 0.00 0.00 81 1009.4
20260506183204 16 211 12.9 40.2 0.00 0.00 0.00 80 1009.9
20260506180504 16 205 14.5 37.0 0.00 0.00 0.00 80 1010.1
20260506175603 16 211 16.1 43.5 0.00 0.00 0.00 79 1010.3
20260506174703 17 205 14.5 33.8 0.00 0.00 0.00 79 1010.7
20260506173803 16 201 17.7 43.5 0.00 0.00 0.00 80 1010.9
20260506172903 16 208 16.1 38.6 0.00 0.00 0.00 79 1010.5
20260506172003 16 202 17.7 38.6 0.00 0.00 0.00 80 1010.7
20260506171103 16 203 16.1 37.0 0.00 0.00 0.00 80 1010.8
20260506170203 16 209 16.1 38.6 0.00 0.00 0.00 80 1010.9
20260506165305 16 209 17.7 35.4 0.00 0.00 0.00 82 1011.1
20260506164403 16 212 16.1 41.8 0.00 0.00 0.00 81 1011.3
20260506163503 16 205 14.5 35.4 0.00 0.00 0.00 81 1011.4
20260506162603 16 210 12.9 32.2 0.00 0.00 0.00 80 1011.4
20260506161703 16 212 12.9 40.2 0.00 0.00 0.00 80 1011.5
20260506160803 17 210 16.1 32.2 0.00 0.00 0.00 79 1011.7
20260506155903 17 214 19.3 40.2 0.00 0.00 0.00 78 1011.7
20260506155003 17 211 16.1 30.6 0.00 0.00 0.00 78 1011.8
20260506154103 16 210 20.9 41.8 0.00 0.00 0.00 80 1011.9
20260506153203 16 203 17.7 40.2 0.00 0.00 0.00 79 1011.8
20260506152305 17 220 17.7 41.8 0.00 0.00 0.00 80 1012.0
20260506151403 16 205 19.3 43.5 0.00 0.00 0.00 80 1012.0
20260506150504 16 199 17.7 35.4 0.00 0.00 0.00 80 1012.0
20260506145603 16 208 16.1 37.0 0.00 0.00 0.00 80 1011.9
20260506144703 16 216 16.1 33.8 0.00 0.00 0.00 81 1012.0
20260506143803 16 203 17.7 41.8 0.00 0.00 0.00 81 1011.9
20260506142903 16 209 16.1 41.8 0.00 0.00 0.00 80 1012.0
20260506141103 16 219 16.1 30.6 0.00 0.00 0.00 80 1011.7
20260506140203 16 212 16.1 37.0 0.00 0.00 0.00 80 1011.8
20260506134403 16 219 16.1 29.0 0.00 0.00 0.00 80 1012.1
20260506133503 16 211 12.9 33.8 0.00 0.00 0.00 80 1012.1
20260506132604 16 211 12.9 29.0 0.00 0.00 0.00 81 1012.2
20260506131703 16 225 16.1 35.4 0.00 0.00 0.00 82 1012.1
20260506130803 16 215 17.7 43.5 0.00 0.00 0.00 82 1012.0
20260506125903 16 209 16.1 33.8 0.00 0.00 0.00 83 1011.9
20260506125003 16 209 17.7 35.4 0.00 0.00 0.00 82 1012.0
20260506122305 15 215 11.3 27.4 0.00 0.00 0.00 84 1012.1
20260506121403 15 221 17.7 45.1 0.00 0.00 0.00 85 1012.0
20260506120503 15 212 14.5 35.4 0.00 0.00 0.00 85 1012.2
20260506115602 15 231 14.5 33.8 0.00 0.00 0.00 85 1012.3
20260506114703 15 222 12.9 40.2 0.00 0.00 0.00 86 1012.4
20260506113803 14 225 11.3 33.8 0.00 0.00 0.00 87 1012.5
20260506112902 14 211 11.3 32.2 0.00 0.00 0.00 88 1012.4
20260506112003 14 217 12.9 33.8 0.00 0.00 0.00 88 1012.4
20260506111103 14 218 9.7 25.7 0.00 0.00 0.00 88 1012.4
20260506110202 13 212 12.9 33.8 0.00 0.00 0.00 88 1012.4
20260506105305 13 215 11.3 25.7 0.00 0.00 0.00 89 1012.5
20260506104403 13 216 11.3 25.7 0.00 0.00 0.00 89 1012.5
20260506102603 13 209 12.9 27.4 0.00 0.00 0.00 90 1012.2
20260506094102 13 213 11.3 25.7 0.00 0.00 0.00 90 1012.2
20260506093202 13 212 11.3 29.0 0.00 0.00 0.00 90 1012.2
20260506092306 13 219 11.3 35.4 0.00 0.00 0.00 90 1012.2
20260506091402 13 214 9.7 25.7 0.00 0.00 0.00 90 1012.3
20260506090502 13 217 9.7 27.4 0.00 0.00 0.00 89 1012.4
20260506085602 13 212 9.7 30.6 0.00 0.00 0.00 89 1012.4
20260506084702 13 213 12.9 25.7 0.00 0.00 0.00 89 1012.4
20260506083802 13 215 9.7 24.1 0.00 0.00 0.00 89 1012.5
20260506082902 13 219 12.9 40.2 0.00 0.00 0.00 89 1012.5
20260506082002 13 221 12.9 33.8 0.00 0.00 0.00 89 1012.5
20260506081102 13 226 12.9 33.8 0.00 0.00 0.00 89 1012.4
20260506080202 13 222 11.3 25.7 0.00 0.00 0.00 89 1012.5
20260506073502 13 216 14.5 40.2 0.00 0.00 0.00 90 1012.5
20260506072602 13 224 12.9 27.4 0.00 0.00 0.00 90 1012.4
20260506071702 13 213 12.9 25.7 0.00 0.00 0.00 89 1012.5
20260506062305 13 215 11.3 27.4 0.00 0.00 0.00 87 1012.2
20260506061402 14 220 14.5 33.8 0.00 0.00 0.00 87 1012.3
20260506060502 13 225 12.9 33.8 0.00 0.00 0.00 87 1012.3